Location: Nians�bougou
(13.2321°N, 4.9818°W)
Time: 08:55:25
(UTC+00:00)

Cosmos 1825 - Pass Details

Date: 18 February 2020
Orbit: 504 x 507 km, 82.5° (Epoch: 28 March)

Event Time Altitude Azimuth Distance (km) Brightness Sun altitude
Exits shadow 05:33:31 29° 235° (SW) 956 3.1 -17.2°
Drops below altitude 10° 05:35:57 10° 202° (SSW) 1,713 4.7 -16.6°
Sets 05:38:12 0° 192° (SSW) 2,598 5.7 -16.0°
